Change the Weather History Date:

Sunday, October 28, 2012

  Actual Average Record
Temperature  
Mean Temperature 66 °F -  
Max Temperature 74 °F 71 °F 86 °F (2014)
Min Temperature 55 °F 50 °F 35 °F (2008)
Growing Degree Days 16 (Base 50)    
Moisture  
Dew Point 49 °F    
Average Humidity 57    
Maximum Humidity 72    
Minimum Humidity 40    
Precipitation  
Precipitation 0.00 in - - ()
Sea Level Pressure  
Sea Level Pressure 29.65 in    
Wind  
Wind Speed 11 mph (NNW)    
Max Wind Speed 16 mph    
Max Gust Speed 24 mph    
Visibility 10 miles    
Events      
Averages and records for this station are not official NWS values.
T = Trace of Precipitation, MM = Missing Value Source: NWS Daily Summary

Daily Weather History Graph

Daily Weather History Graph

Search for Another Location

Airport or City:

Trip Planner

Search our weather history database for the weather conditions in past years. The results will help you decide how hot, cold, wet, or windy it might be!

Date:

Astronomy

Oct. 28, 2012 Rise Set
Actual Time 7:39 AM EDT 6:33 PM EDT
Civil Twilight 7:13 AM EDT 6:59 PM EDT
Nautical Twilight 6:44 AM EDT 7:28 PM EDT
Astronomical Twilight 6:15 AM EDT 7:58 PM EDT
Moon 5:50 PM EDT (10/28) 6:32 AM EDT (10/28)
Length of Visible Light 11h 45m
Length of Day
10h 54m
Waxing Gibbous, 99% of the Moon is Illuminated
Oct 28
Waxing Gibbous
Oct 29
Full
Nov 6
Last Quarter
Nov 13
New
Nov 20
First Quarter

Hourly Weather History & Observations

Time (EDT) Temp. Dew Point Humidity Pressure Visibility Wind Dir Wind Speed Gust Speed Precip Events Conditions
12:55 AM 64.0 °F 51.4 °F 64% 29.68 in 10.0 mi NNW 10.4 mph 19.6 mph N/A   Clear
1:55 AM 63.3 °F 50.7 °F 63% 29.67 in 10.0 mi NNW 12.7 mph - N/A   Clear
2:55 AM 62.8 °F 50.2 °F 63% 29.66 in 10.0 mi North 11.5 mph - N/A   Clear
3:55 AM 63.0 °F 49.5 °F 61% 29.65 in 10.0 mi North 12.7 mph 21.9 mph N/A   Clear
4:55 AM 62.2 °F 49.6 °F 63% 29.65 in 10.0 mi NNW 9.2 mph - N/A   Clear
5:55 AM 61.7 °F 50.7 °F 67% 29.65 in 10.0 mi North 13.8 mph - N/A   Clear
6:55 AM 59.7 °F 50.4 °F 71% 29.66 in 10.0 mi NNW 9.2 mph - N/A   Clear
7:55 AM 58.8 °F 49.6 °F 72% 29.67 in 10.0 mi NNW 10.4 mph - N/A   Clear
8:55 AM 60.6 °F 49.6 °F 67% 29.68 in 10.0 mi NNW 11.5 mph - N/A   Overcast
9:55 AM 63.0 °F 49.1 °F 61% 29.68 in 10.0 mi North 16.1 mph - N/A   Overcast
10:55 AM 66.0 °F 49.1 °F 54% 29.68 in 10.0 mi North 11.5 mph - N/A   Overcast
11:55 AM 66.9 °F 49.1 °F 53% 29.66 in 10.0 mi North 13.8 mph 18.4 mph N/A   Mostly Cloudy
12:55 PM 69.1 °F 49.5 °F 50% 29.65 in 10.0 mi North 10.4 mph - N/A   Mostly Cloudy
1:55 PM 71.4 °F 49.3 °F 45% 29.63 in 10.0 mi NNE 11.5 mph 17.3 mph N/A   Mostly Cloudy
2:55 PM 73.0 °F 48.4 °F 42% 29.61 in 10.0 mi North 10.4 mph 17.3 mph N/A   Mostly Cloudy
3:55 PM 74.1 °F 48.2 °F 40% 29.60 in 10.0 mi North 16.1 mph 21.9 mph N/A   Mostly Cloudy
4:55 PM 73.6 °F 48.4 °F 41% 29.60 in 10.0 mi North 10.4 mph - N/A   Clear
5:55 PM 68.7 °F 48.4 °F 48% 29.60 in 10.0 mi NNW 9.2 mph - N/A   Clear
6:55 PM 66.4 °F 48.9 °F 53% 29.61 in 10.0 mi North 3.5 mph - N/A   Overcast
7:55 PM 65.5 °F 49.6 °F 57% 29.62 in 10.0 mi NNW 8.1 mph - N/A   Overcast
8:55 PM 63.5 °F 46.4 °F 54% 29.64 in 10.0 mi NW 12.7 mph - N/A   Mostly Cloudy
9:55 PM 59.5 °F 47.1 °F 63% 29.66 in 10.0 mi NNW 12.7 mph 24.2 mph N/A   Scattered Clouds
10:55 PM 57.2 °F 44.2 °F 62% 29.68 in 10.0 mi NW 15.0 mph - N/A   Overcast
11:55 PM 55.6 °F 41.0 °F 58% 29.68 in 10.0 mi NW 15.0 mph - N/A   Overcast